Location: Antin
(43.3330°N, 0.2804°E)
Time: 06:30:52
(UTC+00:00)

SME Rocket - Pass Details

Date: 09 December 2023
Orbit: 550 x 2645 km, 99.9° (Epoch: 04 March)

Event Time Altitude Azimuth Distance (km) Brightness Sun altitude
Rises 17:51:29 0° 137° (SE) 3,470 6.6 -15.5°
Reaches altitude 10° 17:53:36 10° 130° (SE) 2,727 6.0 -15.9°
Maximum altitude 17:59:26 45° 59° (ENE) 1,693 4.8 -16.9°
Drops below altitude 10° 18:08:14 10° 352° (N) 4,106 7.2 -18.4°
Sets 18:12:03 0° 348° (NNW) 5,414 7.9 -19.1°
